sat.trackr.live / text

‹ back to catalog

DIRECTV 9S

NORAD 29494 · 2006-043A

PAYLOAD ACTIVE UNKNOWN

§ Identity

Operator
Country
US
Launch date
2006-10-13
Launch site
FRGUI
Launch vehicle
Mass (kg)
RCS (m²)
271.13

Purposes: comms

External: N2YO · Heavens-Above · Gunter

§ Orbital elements

Epoch: 2026-09-19T19:35:21.256800Z

Period
1,453.11 min
Inclination
2.6592°
Eccentricity
0.0006589
Mean motion
0.99097545 rev/d
Perigee alt
36,091.0 km
Apogee alt
36,147.0 km
Semi-major
42,497.2 km
B*
0.0000e+0
RAAN
79.6560°
Arg perigee
194.1188°
Mean anomaly
210.0421°
Rev number
5,233

§ Raw data

DIRECTV 9S1 29494U 06043A   26262.81621825 -.00000082  00000+0  00000+0 0  99912 29494   2.6592  79.6560 0006589 194.1188 210.0421  0.99097545 52338

JSON: /api/v1/satellites/29494 · /tle

For live sub-satellite position, see the globe view (requires WebGL).

§ Visibility from observer

Set your observer location to see the next 7 days of passes ≥ 10°. The values pass through the URL so the page stays shareable.

No JS? Fill the form by hand. The geolocation button needs JavaScript.